Regional Weather Roundup
Issued by NWS

Home | Current Version | Previous Version | Graphics & Text | Print | Product List | Glossary On
Versions: 1 2 3 4 5 6 7 8 9 10 11 12 13 14 15 16 17 18 19 20 21 22 23 24 25 26 27 28 29 30 31 32 33 34 35 36 37 38 39 40 41 42 43 44 45 46 47 48 49 50
000
ASUS43 KIND 291359
RWRIN

WEATHER ROUNDUP FOR INDIANA
NATIONAL WEATHER SERVICE INDIANAPOLIS IN
1000 AM EDT TUE JUL 29 2014

NOTE: "FAIR" INDICATES FEW OR NO CLOUDS BELOW 12,000 FEET WITH NO
SIGNIFICANT WEATHER AND/OR OBSTRUCTIONS TO VISIBILITY.

* - STATION DOES NOT REPORT WEATHER SUCH AS PRECIPITATION OR FOG.

+ - STATION NOT QUALITY CONTROLLED BY THE NATIONAL WEATHER SERVICE.
    USE DATA WITH CAUTION...ESPECIALLY DEWPOINT AND RELATIVE
    HUMIDITY OBSERVATIONS.

INZ001>003-010>013-019-020-291500-
NORTHWEST INDIANA

CITY           SKY/WX    TMP DP  RH WIND       PRES   REMARKS
VALPARAISO     SUNNY     65  54  67 SW8       30.06S

$$

LMZ046-743>745-291500-
SOUTHERN LAKE MICHIGAN

STATION/POSITION TIME  TEMP WIND        PRES
                       AIR  DIR/SP/G
                 (UTC) (F)  (DEG/KT/KT) (MB)
MICHIGAN CITY    1300   60  180/ 10/ 12   N/A

$$

INZ004-005-014>016-021>024-291500-
NORTH CENTRAL INDIANA

CITY           SKY/WX    TMP DP  RH WIND       PRES   REMARKS
ELKHART        CLOUDY    63  54  72 SW6       30.05S
GOSHEN         CLOUDY    59  54  83 SW7       30.05S
SOUTH BEND     CLOUDY    62  52  69 SW7       30.05S

$$

INZ006>009-017-018-025>027-291500-
NORTHEAST INDIANA

CITY           SKY/WX    TMP DP  RH WIND       PRES   REMARKS
ANGOLA *+      MOSUNNY   63  54  72 W5        30.05S
FORT WAYNE     MOSUNNY   60  52  74 W7        30.07R

$$

INZ028-029-035-036-043>045-051>053-291500-
WEST CENTRAL INDIANA

CITY           SKY/WX    TMP DP  RH WIND       PRES   REMARKS
GREENCASTLE +  SUNNY     61  54  77 CALM      30.09S
LAFAYETTE      SUNNY     60  54  80 CALM      30.08R
TERRE HAUTE    SUNNY     65  55  70 NW7       30.09F

$$

INZ030>032-037>040-046>048-054>057-064-065-291500-
CENTRAL INDIANA

CITY           SKY/WX    TMP DP  RH WIND       PRES   REMARKS
ANDERSON       SUNNY     59  50  72 CALM      30.09S
COLUMBUS       SUNNY     59  55  88 NW5       30.09S
INDIANAPOLIS   SUNNY     63  51  65 W5        30.08S
-EAGLE CREEK   SUNNY     63  49  60 W3        30.07S
KOKOMO *+      SUNNY     63  54  72 W7        30.08S
MT COMFORT *+  SUNNY     63  57  82 CALM      30.08S
SHELBYVILLE    SUNNY     63  53  70 NW6       30.08S

$$

INZ033-034-041-042-049-050-058-059-291500-
EAST CENTRAL INDIANA

CITY           SKY/WX    TMP DP  RH WIND       PRES   REMARKS
MUNCIE         SUNNY     60  52  74 CALM      30.08R

$$

INZ060-061-067>069-081>083-085>088-291500-
SOUTHWEST INDIANA

CITY           SKY/WX    TMP DP  RH WIND       PRES   REMARKS
EVANSVILLE     MOSUNNY   67  52  58 VRB6      30.12R

$$

INZ062-063-066-070>080-084-089>092-291500-
SOUTH CENTRAL AND SOUTHEAST INDIANA

CITY           SKY/WX    TMP DP  RH WIND       PRES   REMARKS
BLOOMINGTON    SUNNY     65  51  60 N6        30.09S

$$



USA.gov is the U.S. government's official web portal to all federal, state and local government web resources and services.